Location: Boncourt
(49.6160°N, 3.9448°E)
Time: 15:19:50
(UTC+00:00)

BlueWalker 3 - Pass Details

Date: 09 February 2023
Orbit: 497 x 515 km, 53.2° (Epoch: 25 March)

Event Time Altitude Azimuth Distance (km) Brightness Sun altitude
Rises 19:51:12 0° 288° (WNW) 2,611 6.8 -29.2°
Reaches altitude 10° 19:53:51 10° 270° (W) 1,726 5.5 -29.6°
Enters shadow 19:55:52 18° 241° (WSW) 1,310 4.5 -29.9°
